THORAD AGENA D DEB, 19150

Orbit data source: Space-Track

THORAD AGENA D DEB, 19150 is space debris in SSO originally from a launch on Wed, 08 Apr 1970 UTC launched from the Air Force Western Test Range (AFWTR). Debris objects in space refer to the collection of defunct objects orbiting the Earth. Examples of debris include non-operational satellites, rocket bodies, and fragments generated from explosions, collisions, or faulty payload assembly.

Loading next visibility...
Identifier
19150, 1970-025PS
Orbit
SSO
Country
Flag of USUS
Related business
Manufacturer
Unknown
Mission
Spacecraft
Bus & Motor
Unknown
Mass
Unknown
Launch date (UTC)
1970-04-08 (56 years ago)
Launch vehicle
Unknown
Launch site
Air Force Western Test Range (AFWTR)
Object type
Payload
Rocket body
Debris
Shape & HBR
Unknown shape, 0.1 m
Radar Cross Section
Medium (>0.1 m² and <1 m²)

Expand to show TLE details & history
Last TLE update: 1 week ago

TLE from 1 week ago
0 THORAD AGENA D DEB
1 19150U 70025PS  26152.65054999  .00009830  00000-0  41763-2 0  9996
2 19150 100.3397  99.1716 0017588 183.9210 176.1829 14.25434665903193
Epoch: 2026-06-01T15:36Z
TLE epoch observation values (Epoch: 2026-06-01T15:36:47.519Z)
Latitude
0.00002°
Longitude
-25.16122°
Altitude
822.508 km
Speed
7.435 km/s
True Right ascension
06h 36m 41s
True Declination
0° 00' 00"
Sunlit
Object was in daylight at epoch
Visualization orbit readout
Latitude
Unknown
Longitude
Unknown
Altitude
Unknown
Speed
Unknown
Apparent Right ascension
Unknown
Apparent Declination
Unknown
Sunlit
N/A
Visualization observer readout
Local Sidereal Time
19:22:59
Azimuth
Unknown
Elevation
Unknown
Doppler factor
Unknown
Orbital elements
Apogee altitude
816.901 km
Perigee altitude
791.636 km
Semi-major axis
7,182.405 km
Eccentricity
0.00176
Inclination
100.3397°
RAAN
99.1716°
Arg. of periapsis
183.921°
True anomaly
176.19629°
Mean anomaly
176.1829°
Eccentric anomaly
176.1896°
Mean motion
3.56565 °/min
Orbital period
100.96 mins
BSTAR
0.0041763
Loading maneuver chart data...
Computing Atmospheric mass density...

Documentation

Showing up to 5 results
|